Regional Weather Roundup
Issued by NWS Pendleton, OR

Home | Current Version | Previous Version | Text Only | Print | Product List | Glossary On
Versions: 1 2 3 4 5 6 7 8 9 10 11 12 13 14 15 16 17 18 19 20 21 22 23 24 25 26 27 28 29 30 31 32 33 34 35 36 37 38 39 40 41 42 43 44 45 46 47 48 49 50
000
ASUS46 KPDT 211525
RWRPDT
PENDLETON REGIONAL WEATHER ROUNDUP
NATIONAL WEATHER SERVICE PENDLETON OREGON
800 AM PDT FRI JUL 21 2017

NOTE: FAIR INDICATES FEW OR NO CLOUDS BELOW 12,000 FEET WITH NO
SIGNIFICANT WEATHER AND/OR OBSTRUCTIONS TO VISIBILITY.

# INDICATES UNOFFICIAL STATION AND DATA

WAZ520-211610-
EAST SLOPES OF WASHINGTON CASCADES

CITY            SKY/WX      TMP DP  RH  WIND    PRES   REMARKS
#BULLFROG       N/A         59  48  67  S2      N/A
#CLE ELUM HS    N/A         57  47  69  W2      30.06R
#CLE ELUM LAKE  N/A         51  45  80  CALM    30.22R
#EASTON DOT     N/A         55  46  72  N1      N/A
#ELK HTS DOT    N/A         58  58  100 W3      N/A
#GLENWOOD       N/A         49  48  96  CALM    30.11R
#NELSON 3SW     N/A         55  47  74  CALM    30.26R
#NILE           N/A         57  47  69  N1      29.37R
#TEANAWAY 4NE   N/A         52  47  83  CALM    N/A
#TROUT LAKE 1NE N/A         56  47  72  CALM    30.10R
#TROUT LAKE 1E  N/A         51  48  89  CALM    30.16S
$$

WAZ521-211610-
SIMCOE HIGHLANDS

CITY            SKY/WX      TMP DP  RH  WIND    PRES   REMARKS
#BICKLETON HS   N/A         63  47  56  CALM    30.05S
#CENTERVILLE 1SWN/A         59  49  69  W5      30.05R
#GOLDENDALE 1NE N/A         57  39  51  SW1     N/A
#GOLDENDALE 4W  N/A         61  23  23  W7      30.17R
#GOODNOE HILLS  N/A         64  52  65  W9      N/A
#LYLE 6NE       N/A         56  52  86  CALM    30.09S
#PITT 4SE       N/A         57  49  75  W6      30.11R
$$

WAZ026-211610-
KITTITAS VALLEY

CITY            SKY/WX      TMP DP  RH  WIND    PRES   REMARKS
ELLENSBURG AP   SUNNY       63  47  56  NW12    30.12R
#ELLENSBURG CWU N/A         60  48  64  NW2     30.02R
#ELLENSBURG 3NE N/A         60  49  67  CALM    28.19R
#ELLENSBURG 1E  N/A         59  48  67  CALM    30.11R
#KITTITAS 3S    N/A         57  50  77  CALM    30.07R
#MANASTASH RDG  N/A         58  58  100 N6      N/A
#ROCKY CYN DOT  N/A         63  51  65  NW2     N/A
#RYEGRASS DOT   N/A         56  47  72  S12     N/A
$$

WAZ027-211610-
YAKIMA VALLEY

CITY            SKY/WX      TMP DP  RH  WIND    PRES   REMARKS
SUNNYSIDE AP    N/A         58  47  67  CALM    30.11R
YAKIMA AIRPORT  SUNNY       64  46  52  SW3     30.11S
YAKIMA-VAGABOND SUNNY       63  44  50  NE5     30.10R
#DONALD 2NE     N/A         72  13  10  NW6     28.95R
#GRANDVIEW      N/A         60  47  62  CALM    30.09R
#MABTON         N/A         64  53  67  CALM    30.10R
#MOXEE 2E       N/A         63  N/A N/A W2      30.03F
#NACHES 2SW     N/A         61  49  65  W7      30.12R
#OUTLOOK DOT    N/A         60  49  67  CALM    30.07R
#PARKER DOT     N/A         64  46  52  SE6     30.10R
#TERRACE HTS    N/A         59  48  67  CALM    30.03R
#TOPPENISH      N/A         62  49  62  CALM    30.00R
#I82 S UMTANUM RN/A         62  48  60  E1      N/A
#UNION GAP DOT  N/A         64  46  52  NW3     30.13R
#W YAKIMA       N/A         65  49  56  CALM    30.07R
#WHITE SWAN 5E  N/A         61  50  67  CALM    30.08R
#WILEY CITY 3W  N/A         64  42  45  CALM    30.09R
#ZILLAH DOT     N/A         62  48  60  W2      N/A
$$

WAZ028-211610-
LOWER COLUMBIA BASIN...WASHINGTON

CITY            SKY/WX      TMP DP  RH  WIND    PRES   REMARKS
HANFORD         MOSUNNY     67  45  45  NW8     30.09R
PASCO           SUNNY       64  48  56  CALM    30.10R
PROSSER AWOS    N/A         64  50  60  CALM    30.14R
RICHLAND AWOS   SUNNY       69  48  47  CALM    30.10R
#BENTON CITY    N/A         65  48  54  CALM    29.98R
#CONNELL 5N     N/A         67  50  54  CALM    30.07R
#CONNELL 5NW    N/A         62  50  65  SE1     30.03R
#ELTOPIA 6NW    N/A         61  54  78  CALM    29.08R
#KAHLOTUS       N/A         65  48  54  CALM    30.06R
#KENNEWICK 3S   N/A         63  51  65  SW2     30.08R
#PATERSON       N/A         62  52  70  CALM    30.08R
#PROSSER DOT    N/A         65  50  58  CALM    30.10R
#SAGEMOOR 2W    N/A         62  52  70  SE1     29.94R
#TOUCHET 2S     N/A         69  50  51  S6      30.06R
#WEST PASCO     N/A         66  53  63  CALM    30.10R
$$

WAZ029-211610-
FOOTHILLS OF THE BLUES...WASHINGTON

CITY            SKY/WX      TMP DP  RH  WIND    PRES   REMARKS
WALLA WALLA AP  SUNNY       67  44  43  SW10    30.12R
#CLYDE 6NW      N/A         63  47  56  S5      30.06R
#DAYTON SCHOOL  N/A         63  41  44  N1      30.14R
#DELANEY DOT    N/A         67  43  42  CALM    30.12R
#LOWDEN 2SE     N/A         68  52  57  CALM    30.08R
#PLEASANT VIEW 1N/A         65  46  50  S7      30.09R
#PRESCOTT       N/A         65  50  58  SW2     30.09R
#WHITMAN COLLEGEN/A         65  46  50  S3      30.12R
#WAITSBURG 5S   N/A         64  44  48  SW1     30.16R
#WAITSBURG 6SSE N/A         65  43  45  SW3     30.11R
#WALLA WALLA 5E N/A         68  47  47  SW13    N/A
#WHITMAN MISSIONN/A         66  49  54  SW2     30.09S
$$

WAZ030-211610-
BLUE MOUNTAINS...WASHINGTON

CITY            SKY/WX      TMP DP  RH  WIND    PRES   REMARKS
#DIXIE 5SE      N/A         56  41  57  S7      30.09R
$$

ORZ009-041-WAZ024-211610-
COLUMBIA RIVER GORGE

CITY            SKY/WX      TMP DP  RH  WIND    PRES   REMARKS
HOOD RIVER AP   SUNNY       61  48  62  S5      30.14R
THE DALLES AP   SUNNY       63  52  67  CALM    30.12R
#ARLINGTON AIRPON/A         63  51  65  W9      30.09R
#CELILO DOT     N/A         65  52  63  NW2     N/A
#LYLE           N/A         62  54  75  N5      30.13R
#MARYHILL       N/A         61  50  67  N12     N/A
#RUFUS DOT      N/A         64  N/A N/A NW8     N/A
#SMITHVILLE     N/A         63  54  72  W5      30.12S

$$

ORZ510-211610-
NORTH CENTRAL OREGON

CITY            SKY/WX      TMP DP  RH  WIND    PRES   REMARKS
#ANTELOPE       N/A         58  46  64  CALM    29.95R
#CHENOWITH 1W   N/A         57  51  80  W17     N/A
#COW CYN RST AREN/A         60  45  58  S1      N/A
#DUFUR          N/A         60  50  69  CALM    30.07S
#DUFUR 9E       N/A         60  48  64  NW2     30.14R
#GRASS VALLEY 1SN/A         59  48  67  S2      30.16R
#KENT DOT       N/A         59  44  57  W6      N/A
#MAUPIN SCHOOL  N/A         58  47  67  CALM    30.19R
#MORO SCHOOL    N/A         63  54  72  W6      30.11S
#SHANIKO 5WSW   N/A         60  45  58  N2      N/A
#SHANIKO 4NW    N/A         60  43  53  W2      30.17R
#TYGH VALLEY 2NEN/A         57  47  69  CALM    30.09S
#WAPANITIA AIRPON/A         60  48  64  CALM    30.10R
#WASCO DOT      N/A         64  52  65  SW2     N/A
#WASCO 5NE      N/A         62  50  65  W7      30.07R
$$

ORZ511-211610-
CENTRAL OREGON

CITY            SKY/WX      TMP DP  RH  WIND    PRES   REMARKS
BEND AIRPORT    SUNNY       63  48  58  VRB5    30.20R
MADRAS AIRPORT  SUNNY       57  46  67  CALM    30.19R
PRINEVILLE AP   SUNNY       59  43  55  CALM    30.19R
REDMOND AIRPORT SUNNY       58  44  60  CALM    30.18R
#ASHWOOD SCHOOL N/A         55  44  66  CALM    30.12R
#BEND 1SW       N/A         55  48  77  SW1     N/A
#BEND-AWBREY    N/A         52  45  77  CALM    30.05R
#BEND-KIM LN    N/A         58  46  64  CALM    30.01R
#CULVER         N/A         56  49  77  CALM    30.00R
#CULVER 8W      N/A         67  46  47  CALM    30.15R
#LAKE BILLY CHINN/A         58  N/A N/A NE2     30.10R
#MADRAS 4S      N/A         61  17  18  NW2     N/A
#POWELL BUTTE   N/A         57  48  72  CALM    30.12R
#PRINEVILLE     N/A         57  45  64  CALM    30.15R
#PRINEVILLE 3N  N/A         57  47  69  CALM    30.15R
#WARM SPRINGS   N/A         59  46  62  CALM    29.98R

$$


ORZ509-211610-
EAST SLOPES OF OREGON CASCADES

CITY            SKY/WX      TMP DP  RH  WIND    PRES   REMARKS
SISTERS AWOS    N/A         54  41  61  CALM    30.14R
#CAMP SHERMAN   N/A         43  41  93  CALM    30.18R
#LA PINE 4NW    N/A         45  42  89  CALM    30.11R
#LAVA BUTTE DOT N/A         51  44  77  CALM    N/A
#SISTERS ODOT   N/A         54  40  59  CALM    N/A
#SISTERS 3N     N/A         53  44  71  CALM    30.10S
#SUNRIVER       N/A         47  45  93  CALM    30.24R
#TUMALO 3W      N/A         56  45  66  CALM    29.93R
#WANOGA BUTTE D N/A         55  23  29  E1      N/A

$$

ORZ044-211610-
LOWER COLUMBIA BASIN...OREGON

CITY            SKY/WX      TMP DP  RH  WIND    PRES   REMARKS
HERMISTON       SUNNY       66  50  56  SW8     30.11R
#BOARDMAN SCHOOLN/A         63  52  67  CALM    30.09R
#BOARDMAN 8SW   N/A         65  54  68  SW9     30.09R
#ECHO 8SW       N/A         67  51  56  W3      30.12R
#I-84 EX 198 DOTN/A         65  51  60  NE8     N/A
#IONE SCHOOL    N/A         64  42  45  W2      30.10R
#UMATILLA       N/A         64  48  56  CALM    30.02R
$$

ORZ507-211610-
NORTHERN FOOTHILLS OF THE BLUES

CITY            SKY/WX      TMP DP  RH  WIND    PRES   REMARKS
PENDLETON AIRPT SUNNY       62  44  52  S6      30.13R
#ADAMS 3WNW     N/A         63  45  52  S3      30.09R
#ATHENA         N/A         64  46  52  SW3     30.11R
#CAYUSE         N/A         64  47  54  E1      30.08R
#HELIX SCHOOL   N/A         63  47  56  N7      30.07R
#HELIX 3N       N/A         63  47  56  SW14    30.10R
#HOLDMAN 5SE    N/A         66  49  54  SW7     30.11R
#HOLDMAN 6E     N/A         63  48  58  SW9     29.88R
#M-F GROVE ELEM N/A         68  43  40  CALM    30.09R
#M-FREEWATER 5SEN/A         62  46  56  CALM    30.11R
#PENDLETON DNTN N/A         57  41  55  CALM    30.10S
#PDT AQUATIC CTRN/A         59  45  60  CALM    30.11S
#PDT SUNRIDGE   N/A         63  46  54  CALM    30.14R
#PENDLETON 7NW  N/A         67  50  54  SW7     30.15R
#PILOT ROCK 1S  N/A         66  42  42  CALM    30.14R
#PILOT ROCK     N/A         61  46  58  CALM    30.14S
#TUTUILLA       N/A         62  49  62  CALM    30.19R
#UMAPINE 2E     N/A         67  51  56  SW3     30.09R
#WESTON SCHOOL  N/A         63  42  46  NW5     30.06R

$$

ORZ508-211610-
SOUTHERN FOOTHILLS OF THE BLUES

CITY            SKY/WX      TMP DP  RH  WIND    PRES   REMARKS
LEXINGTON       SUNNY       64  46  52  CALM    30.17R
#AJAX           N/A         58  41  53  S3      30.28R
#CONDON 5W      N/A         60  41  49  CALM    30.14S
#FOSSIL SCHOOL  N/A         59  46  62  CALM    30.10R
#HEPPNER EOC    N/A         61  45  56  CALM    30.01S
#HEPPNER 4NE    N/A         61  47  60  CALM    30.06R
#LEXINGTON 2SE  N/A         65  47  52  CALM    30.11R
#MIKKALO        N/A         63  46  54  W2      30.24S
#OLEX 4N        N/A         63  49  60  SW8     30.10S
#RUGGS 5NE      N/A         64  42  45  S3      30.33R
#RUGGS 2SW      N/A         63  41  44  E1      30.08R

$$

ORZ502-503-211610-
BLUE MOUNTAINS

CITY            SKY/WX      TMP DP  RH  WIND    PRES   REMARKS
MEACHAM         SUNNY       52  37  56  CALM    30.18R
#BATTLE MTN DOT N/A         50  39  66  S3      N/A
#GRANITE        N/A         41  37  86  SW1     29.85S
#HEPPNER 15SE   N/A         56  34  43  CALM    30.01R
#LADD CYN SMT   N/A         60  41  49  NW6     N/A
#LADD CREEK ODOTN/A         56  40  55  NE3     N/A
#LONG CREEK HS  N/A         59  47  64  CALM    N/A
#N POWDER DOT   N/A         59  47  64  SW2     N/A
#PIKES PEAK     N/A         57  41  55  N12     27.99S
#TOLLGATE       N/A         53  42  66  SW1     30.04R
#TROY SCHOOL    N/A         65  44  46  CALM    29.91S
#UKIAH          N/A         47  40  76  CALM    30.03S
#WESTON 4E      N/A         59  41  51  S5      30.03R
$$

ORZ505-211610-
JOHN DAY BASIN

CITY            SKY/WX      TMP DP  RH  WIND    PRES   REMARKS
JOHN DAY        SUNNY       61  42  50  CALM    30.19R
#JOHN DAY KJDY  N/A         63  N/A N/A CALM    30.99R
#ANTELOPE 9ESE  N/A         62  46  56  NE2     N/A
#DAYVILLE SCHOOLN/A         61  43  51  CALM    30.12S
#MITCHELL       N/A         61  51  70  CALM    30.31S
#MITCHELL 8NW   N/A         60  44  55  CALM    30.09R
#MONUMENT HS    N/A         57  43  59  CALM    30.10S
#MT. VERNON 5SE N/A         60  44  55  NE1     30.14R
#SPRAY SCHOOL   N/A         61  N/A N/A CALM    N/A
$$

ORZ506-211610-
OCHOCO AND JOHN DAY HIGHLANDS

CITY            SKY/WX      TMP DP  RH  WIND    PRES   REMARKS
#HORSE RIDGE DO N/A         52  36  54  SW1     N/A
#IZEE 6NW       N/A         53  41  64  N2      N/A
#PAULINA ODOT   N/A         55  37  51  CALM    N/A
#PINE MTN OBS   N/A         58  28  32  CALM    N/A
#PRAIRIE CITY   N/A         59  47  64  CALM    30.29
#SENECA         N/A         52  N/A N/A CALM    N/A
#SENECA 9NW     N/A         51  42  71  CALM    29.99S
$$

ORZ049-211610-
GRANDE RONDE VALLEY

CITY            SKY/WX      TMP DP  RH  WIND    PRES   REMARKS
LA GRANDE       SUNNY       61  37  41  SE3     30.17R
#COVE           N/A         59  46  62  N1      30.18R
#COVE SCHOOL    N/A         60  43  53  CALM    30.17R
#COVE 6NW       N/A         54  44  69  CALM    30.09R
#ELGIN 3N       N/A         57  42  57  CALM    30.13R
#ELGIN 1E       N/A         48  38  68  CALM    N/A
#IMBLER SCHOOL  N/A         56  41  57  CALM    30.11R
#ISLAND CITY 4N N/A         57  54  90  CALM    30.16S
#LA GRANDE-LEFFEN/A         63  41  44  E2      30.15R
#UNION 1S       N/A         60  44  55  NW1     30.05R
$$

ORZ050-211610-
WALLOWA COUNTY

CITY            SKY/WX      TMP DP  RH  WIND    PRES   REMARKS
JOSEPH AIRPORT  SUNNY       61  41  48  CALM    30.19R
#ENTERPRISE HS  N/A         55  44  66  CALM    29.94R
#IMNAHA SCHOOL  N/A         61  41  48  N1      30.12R
#IMNAHA 10S     N/A         61  41  48  CALM    30.13S
#JOSEPH         N/A         61  42  50  CALM    30.10R
#JOSEPH 3N      N/A         56  41  57  CALM    30.19R
#JOSEPH 3W      N/A         66  48  52  E1      30.01R
#LOSTINE        N/A         57  45  64  CALM    29.87R
#LOSTINE 3SE    N/A         57  42  57  S1      30.22R
#MT HOWARD 8000 N/A         55  20  25  CALM    30.35R
#PROMISE 1S     N/A         60  42  51  CALM    30.11S
#WALLOWA LAKE   N/A         55  43  64  S1      30.22R
#WALLOWA SCHOOL N/A         54  42  64  CALM    30.12S



$$



USA.gov is the U.S. government's official web portal to all federal, state and local government web resources and services.